TimeAKDT,TemperatureF,Dew PointF,Humidity,Sea Level PressureIn,VisibilityMPH,Wind Direction,Wind SpeedMPH,Gust SpeedMPH,PrecipitationIn,Events,Conditions,WindDirDegrees,DateUTC
12:03 AM,24.8,14.0,64,30.63,10.0,North,19.6,28.8,N/A,,Overcast,10,2012-10-31 08:03:00
12:15 AM,24.8,14.0,64,30.62,10.0,North,19.6,-,N/A,,Overcast,10,2012-10-31 08:15:00
12:53 AM,24.1,15.1,69,30.63,8.0,NNE,17.3,-,0.00,Snow,Light Snow,20,2012-10-31 08:53:00
1:12 AM,24.8,15.8,69,30.63,8.0,NNE,17.3,-,0.00,Snow,Light Snow,20,2012-10-31 09:12:00
1:37 AM,23.0,15.8,74,30.63,5.0,NNE,18.4,-,0.00,Snow,Light Snow,20,2012-10-31 09:37:00
1:53 AM,23.0,16.0,74,30.63,4.0,North,17.3,-,0.00,Snow,Light Snow,10,2012-10-31 09:53:00
2:53 AM,23.0,17.1,78,30.64,4.0,North,20.7,-,0.00,Snow,Light Snow,10,2012-10-31 10:53:00
3:53 AM,23.0,15.1,72,30.64,9.0,North,19.6,24.2,0.00,,Overcast,10,2012-10-31 11:53:00
4:53 AM,23.0,16.0,74,30.65,6.0,North,16.1,-,0.00,Snow,Light Snow,360,2012-10-31 12:53:00
5:53 AM,21.9,17.1,82,30.65,2.5,NNE,17.3,-,0.00,Snow,Light Snow,20,2012-10-31 13:53:00
6:05 AM,21.2,15.8,80,30.64,5.0,North,11.5,-,0.00,Snow,Light Snow,10,2012-10-31 14:05:00
6:53 AM,21.9,16.0,78,30.65,9.0,NNE,11.5,-,0.00,,Overcast,30,2012-10-31 14:53:00
7:50 AM,23.0,12.2,63,30.65,10.0,North,15.0,-,N/A,,Overcast,10,2012-10-31 15:50:00
7:53 AM,23.0,12.9,65,30.65,10.0,North,16.1,-,N/A,,Overcast,10,2012-10-31 15:53:00
8:44 AM,21.2,14.0,74,30.64,7.0,North,10.4,-,0.00,Snow,Light Snow,350,2012-10-31 16:44:00
8:53 AM,23.0,15.1,72,30.65,9.0,North,12.7,-,0.00,,Overcast,10,2012-10-31 16:53:00
9:11 AM,21.2,15.8,80,30.64,8.0,NNE,10.4,-,0.00,Snow,Light Snow,30,2012-10-31 17:11:00
9:53 AM,21.9,16.0,78,30.65,10.0,NNE,10.4,-,0.00,,Overcast,30,2012-10-31 17:53:00
10:08 AM,21.2,15.8,80,30.65,10.0,NE,8.1,-,N/A,,Overcast,40,2012-10-31 18:08:00
10:53 AM,21.0,14.0,74,30.65,9.0,NE,5.8,-,0.00,,Overcast,50,2012-10-31 18:53:00
11:10 AM,21.2,15.8,80,30.65,5.0,NNE,8.1,-,0.00,Snow,Light Snow,30,2012-10-31 19:10:00
11:41 AM,21.2,15.8,80,30.65,10.0,NNE,6.9,-,0.00,,Overcast,20,2012-10-31 19:41:00
11:53 AM,21.0,15.1,78,30.66,10.0,NE,5.8,-,0.00,,Overcast,40,2012-10-31 19:53:00
12:53 PM,15.1,10.0,80,30.65,10.0,ENE,6.9,-,N/A,,Mostly Cloudy,70,2012-10-31 20:53:00
1:53 PM,19.9,16.0,85,30.63,10.0,NE,4.6,-,N/A,,Overcast,50,2012-10-31 21:53:00
2:53 PM,19.9,14.0,78,30.63,10.0,ENE,3.5,-,0.00,,Overcast,60,2012-10-31 22:53:00
3:53 PM,15.1,10.9,84,30.61,10.0,Calm,Calm,-,N/A,,Overcast,0,2012-10-31 23:53:00
4:53 PM,16.0,12.9,88,30.60,10.0,Calm,Calm,-,0.00,,Overcast,0,2012-11-01 00:53:00
5:53 PM,8.1,3.9,83,30.59,10.0,Calm,Calm,-,N/A,,Scattered Clouds,0,2012-11-01 01:53:00
6:53 PM,8.1,3.9,83,30.59,10.0,Calm,Calm,-,N/A,,Overcast,0,2012-11-01 02:53:00
7:18 PM,8.6,5.0,85,30.58,2.5,SE,3.5,-,0.00,Snow,Light Snow,140,2012-11-01 03:18:00
7:46 PM,8.6,5.0,85,30.57,3.0,SE,4.6,-,0.00,Snow,Light Snow,130,2012-11-01 03:46:00
7:53 PM,8.1,3.9,83,30.58,6.0,SE,3.5,-,0.00,Snow,Light Snow,140,2012-11-01 03:53:00
8:13 PM,6.8,3.2,85,30.57,10.0,SE,4.6,-,0.00,,Overcast,130,2012-11-01 04:13:00
8:53 PM,8.1,3.9,83,30.56,10.0,SE,5.8,-,0.00,,Overcast,130,2012-11-01 04:53:00
9:53 PM,10.0,6.1,84,30.54,5.0,SE,6.9,-,0.00,Snow,Light Snow,130,2012-11-01 05:53:00
10:02 PM,10.4,8.6,92,30.54,6.0,SE,5.8,-,0.00,Snow,Light Snow,140,2012-11-01 06:02:00
10:53 PM,19.0,16.0,88,30.52,7.0,South,10.4,-,0.00,Snow,Light Snow,190,2012-11-01 06:53:00
11:10 PM,17.6,15.8,93,30.51,9.0,South,10.4,-,0.00,Snow,Light Snow,190,2012-11-01 07:10:00
11:32 PM,17.6,14.0,86,30.50,10.0,South,11.5,-,0.00,,Overcast,190,2012-11-01 07:32:00
11:53 PM,17.1,12.9,84,30.50,10.0,South,10.4,-,0.00,,Overcast,180,2012-11-01 07:53:00